SHIJIAN-17 (SJ-17)

Last updated on Mon Sep 21 2026 00:03:00 GMT+0000 (Coordinated Universal Time)

1 41838U 16065A 26262.87679090 -.00000203 00000+0 00000+0 0 9990 2 41838 5.9869 71.4159 0001821 73.2309 266.7334 0.99854943 36142
UTC large
Height (km)
Speed (km/s)
/
Latitude / Longitude
Inclination (degrees)
Orbital Period (minutes)
Azimuth
Elevation
Range (km)
Doppler Factor

Next 0 passes for location: London (51.5072 / 0.1276)

No passes found over London.
SHIJIAN-17 (SJ-17)